Year,Month,Day,Hour,Minute,Value (Times are PST for temperature in C)
2016,08,19,00,00,18.80
2016,08,19,00,01,18.70
2016,08,19,00,02,18.70
2016,08,19,00,03,18.70
2016,08,19,00,04,18.70
2016,08,19,00,05,18.70
2016,08,19,00,06,18.70
2016,08,19,00,07,18.70
2016,08,19,00,08,18.70
2016,08,19,00,09,18.70
2016,08,19,00,10,18.70
2016,08,19,00,11,18.70
2016,08,19,00,12,18.60
2016,08,19,00,13,18.60
2016,08,19,00,14,18.60
2016,08,19,00,15,18.60
2016,08,19,00,16,18.60
2016,08,19,00,17,18.60
2016,08,19,00,18,18.60
2016,08,19,00,19,18.60
2016,08,19,00,20,18.70
2016,08,19,00,21,18.70
2016,08,19,00,22,18.70
2016,08,19,00,23,18.70
2016,08,19,00,24,18.70
2016,08,19,00,25,18.70
2016,08,19,00,26,18.70
2016,08,19,00,27,18.70
2016,08,19,00,28,18.70
2016,08,19,00,29,18.70
2016,08,19,00,30,18.70
2016,08,19,00,31,18.70
2016,08,19,00,32,18.70
2016,08,19,00,33,18.70
2016,08,19,00,34,18.70
2016,08,19,00,35,18.70
2016,08,19,00,36,18.70
2016,08,19,00,37,18.80
2016,08,19,00,38,18.80
2016,08,19,00,39,18.80
2016,08,19,00,40,18.80
2016,08,19,00,41,18.90
2016,08,19,00,42,18.90
2016,08,19,00,43,18.90
2016,08,19,00,44,18.90
2016,08,19,00,45,18.90
2016,08,19,00,46,18.90
2016,08,19,00,47,18.90
2016,08,19,00,48,18.90
2016,08,19,00,49,18.90
2016,08,19,00,50,18.90
2016,08,19,00,51,18.90
2016,08,19,00,52,19.00
2016,08,19,00,53,19.00
2016,08,19,00,54,19.10
2016,08,19,00,55,19.10
2016,08,19,00,56,19.10
2016,08,19,00,57,19.00
2016,08,19,00,58,19.00
2016,08,19,00,59,19.00
2016,08,19,01,00,18.90
2016,08,19,01,01,18.90
2016,08,19,01,02,18.90
2016,08,19,01,03,18.90
2016,08,19,01,04,19.00
2016,08,19,01,05,19.00
2016,08,19,01,06,19.10
2016,08,19,01,07,19.10
2016,08,19,01,08,19.10
2016,08,19,01,09,19.10
2016,08,19,01,10,19.10
2016,08,19,01,11,19.10
2016,08,19,01,12,19.20
2016,08,19,01,13,19.20
2016,08,19,01,14,19.20
2016,08,19,01,15,19.20
2016,08,19,01,16,19.20
2016,08,19,01,17,19.20
2016,08,19,01,18,19.20
2016,08,19,01,19,19.20
2016,08,19,01,20,19.20
2016,08,19,01,21,19.20
2016,08,19,01,22,19.20
2016,08,19,01,23,19.20
2016,08,19,01,24,19.20
2016,08,19,01,25,19.20
2016,08,19,01,26,19.20
2016,08,19,01,27,19.20
2016,08,19,01,28,19.20
2016,08,19,01,29,19.20
2016,08,19,01,30,19.20
2016,08,19,01,31,19.20
2016,08,19,01,32,19.20
2016,08,19,01,33,19.20
2016,08,19,01,34,19.20
2016,08,19,01,35,19.20
2016,08,19,01,36,19.10
2016,08,19,01,37,19.10
2016,08,19,01,38,19.10
2016,08,19,01,39,19.10
2016,08,19,01,40,19.10
2016,08,19,01,41,19.10
2016,08,19,01,42,19.10
2016,08,19,01,43,19.20
2016,08,19,01,44,19.20
2016,08,19,01,45,19.10
2016,08,19,01,46,19.10
2016,08,19,01,47,19.10
2016,08,19,01,48,19.10
2016,08,19,01,49,19.10
2016,08,19,01,50,19.10
2016,08,19,01,51,19.10
2016,08,19,01,52,19.10
2016,08,19,01,53,19.10
2016,08,19,01,54,19.10
2016,08,19,01,55,19.10
2016,08,19,01,56,19.00
2016,08,19,01,57,19.00
2016,08,19,01,58,19.00
2016,08,19,01,59,19.00
2016,08,19,02,00,19.00
2016,08,19,02,01,19.00
2016,08,19,02,02,19.00
2016,08,19,02,03,19.00
2016,08,19,02,04,19.00
2016,08,19,02,05,18.90
2016,08,19,02,06,18.90
2016,08,19,02,07,19.00
2016,08,19,02,08,19.00
2016,08,19,02,09,19.00
2016,08,19,02,10,18.90
2016,08,19,02,11,18.90
2016,08,19,02,12,18.90
2016,08,19,02,13,18.90
2016,08,19,02,14,18.90
2016,08,19,02,15,18.90
2016,08,19,02,16,18.90
2016,08,19,02,17,18.90
2016,08,19,02,18,18.80
2016,08,19,02,19,18.80
2016,08,19,02,20,18.80
2016,08,19,02,21,18.80
2016,08,19,02,22,18.80
2016,08,19,02,23,18.80
2016,08,19,02,24,18.80
2016,08,19,02,25,18.80
2016,08,19,02,26,18.80
2016,08,19,02,27,18.80
2016,08,19,02,28,18.80
2016,08,19,02,29,18.80
2016,08,19,02,30,18.80
2016,08,19,02,31,18.80
2016,08,19,02,32,18.80
2016,08,19,02,33,18.80
2016,08,19,02,34,18.80
2016,08,19,02,35,18.80
2016,08,19,02,36,18.80
2016,08,19,02,37,18.80
2016,08,19,02,38,18.80
2016,08,19,02,39,18.80
2016,08,19,02,40,18.80
2016,08,19,02,41,18.80
2016,08,19,02,42,18.80
2016,08,19,02,43,18.80
2016,08,19,02,44,18.80
2016,08,19,02,45,18.80
2016,08,19,02,46,18.80
2016,08,19,02,47,18.80
2016,08,19,02,48,18.80
2016,08,19,02,49,18.80
2016,08,19,02,50,18.80
2016,08,19,02,51,18.80
2016,08,19,02,52,18.80
2016,08,19,02,53,18.90
2016,08,19,02,54,19.00
2016,08,19,02,55,19.10
2016,08,19,02,56,19.10
2016,08,19,02,57,19.20
2016,08,19,02,58,19.30
2016,08,19,02,59,19.40
2016,08,19,03,00,19.50
2016,08,19,03,01,19.60
2016,08,19,03,02,19.70
2016,08,19,03,03,19.70
2016,08,19,03,04,19.80
2016,08,19,03,05,19.80
2016,08,19,03,06,19.90
2016,08,19,03,07,20.00
2016,08,19,03,08,20.20
2016,08,19,03,09,20.50
2016,08,19,03,10,20.80
2016,08,19,03,11,21.10
2016,08,19,03,12,21.30
2016,08,19,03,13,21.70
2016,08,19,03,14,22.10
2016,08,19,03,15,22.40
2016,08,19,03,16,22.40
2016,08,19,03,17,22.40
2016,08,19,03,18,22.40
2016,08,19,03,19,22.40
2016,08,19,03,20,22.50
2016,08,19,03,21,22.50
2016,08,19,03,22,22.50
2016,08,19,03,23,22.50
2016,08,19,03,24,22.60
2016,08,19,03,25,22.70
2016,08,19,03,26,22.70
2016,08,19,03,27,22.70
2016,08,19,03,28,22.60
2016,08,19,03,29,22.60
2016,08,19,03,30,22.60
2016,08,19,03,31,22.50
2016,08,19,03,32,22.40
2016,08,19,03,33,22.30
2016,08,19,03,34,22.20
2016,08,19,03,35,22.10
2016,08,19,03,36,21.90
2016,08,19,03,37,21.80
2016,08,19,03,38,21.70
2016,08,19,03,39,21.70
2016,08,19,03,40,21.60
2016,08,19,03,41,21.50
2016,08,19,03,42,21.30
2016,08,19,03,43,21.20
2016,08,19,03,44,21.00
2016,08,19,03,45,20.90
2016,08,19,03,46,20.70
2016,08,19,03,47,20.60
2016,08,19,03,48,20.50
2016,08,19,03,49,20.40
2016,08,19,03,50,20.30
2016,08,19,03,51,20.20
2016,08,19,03,52,20.20
2016,08,19,03,53,20.10
2016,08,19,03,54,20.00
2016,08,19,03,55,19.80
2016,08,19,03,56,19.70
2016,08,19,03,57,19.60
2016,08,19,03,58,19.60
2016,08,19,03,59,19.50
2016,08,19,04,00,19.40
2016,08,19,04,01,19.40
2016,08,19,04,02,19.40
2016,08,19,04,03,19.30
2016,08,19,04,04,19.30
2016,08,19,04,05,19.30
2016,08,19,04,06,19.20
2016,08,19,04,07,19.20
2016,08,19,04,08,19.20
2016,08,19,04,09,19.20
2016,08,19,04,10,19.20
2016,08,19,04,11,19.20
2016,08,19,04,12,19.20
2016,08,19,04,13,19.20
2016,08,19,04,14,19.10
2016,08,19,04,15,19.10
2016,08,19,04,16,19.10
2016,08,19,04,17,19.10
2016,08,19,04,18,19.10
2016,08,19,04,19,19.10
2016,08,19,04,20,19.10
2016,08,19,04,21,19.10
2016,08,19,04,22,19.00
2016,08,19,04,23,19.00
2016,08,19,04,24,19.00
2016,08,19,04,25,18.90
2016,08,19,04,26,18.90
2016,08,19,04,27,18.90
2016,08,19,04,28,18.90
2016,08,19,04,29,18.80
2016,08,19,04,30,18.80
2016,08,19,04,31,18.80
2016,08,19,04,32,18.80
2016,08,19,04,33,18.70
2016,08,19,04,34,18.70
2016,08,19,04,35,18.70
2016,08,19,04,36,18.60
2016,08,19,04,37,18.60
2016,08,19,04,38,18.60
2016,08,19,04,39,18.60
2016,08,19,04,40,18.50
2016,08,19,04,41,18.50
2016,08,19,04,42,18.40
2016,08,19,04,43,18.40
2016,08,19,04,44,18.40
2016,08,19,04,45,18.40
2016,08,19,04,46,18.40
2016,08,19,04,47,18.30
2016,08,19,04,48,18.30
2016,08,19,04,49,18.30
2016,08,19,04,50,18.20
2016,08,19,04,51,18.20
2016,08,19,04,52,18.20
2016,08,19,04,53,18.10
2016,08,19,04,54,18.10
2016,08,19,04,55,18.00
2016,08,19,04,56,18.00
2016,08,19,04,57,17.90
2016,08,19,04,58,17.90
2016,08,19,04,59,17.90
2016,08,19,05,00,17.80
2016,08,19,05,01,17.80
2016,08,19,05,02,17.80
2016,08,19,05,03,17.80
2016,08,19,05,04,17.70
2016,08,19,05,05,17.70
2016,08,19,05,06,17.70
2016,08,19,05,07,17.70
2016,08,19,05,08,17.70
2016,08,19,05,09,17.60
2016,08,19,05,10,17.60
2016,08,19,05,11,17.60
2016,08,19,05,12,17.60
2016,08,19,05,13,17.60
2016,08,19,05,14,17.60
2016,08,19,05,15,17.60
2016,08,19,05,16,17.50
2016,08,19,05,17,17.50
2016,08,19,05,18,17.50
2016,08,19,05,19,17.50
2016,08,19,05,20,17.50
2016,08,19,05,21,17.50
2016,08,19,05,22,17.50
2016,08,19,05,23,17.50
2016,08,19,05,24,17.50
2016,08,19,05,25,17.50
2016,08,19,05,26,17.60
2016,08,19,05,27,17.60
2016,08,19,05,28,17.50
2016,08,19,05,29,17.50
2016,08,19,05,30,17.50
2016,08,19,05,31,17.40
2016,08,19,05,32,17.40
2016,08,19,05,33,17.30
2016,08,19,05,34,17.30
2016,08,19,05,35,17.30
2016,08,19,05,36,17.30
2016,08,19,05,37,17.30
2016,08,19,05,38,17.20
2016,08,19,05,39,17.20
2016,08,19,05,40,17.20
2016,08,19,05,41,17.20
2016,08,19,05,42,17.20
2016,08,19,05,43,17.20
2016,08,19,05,44,17.20
2016,08,19,05,45,17.20
2016,08,19,05,46,17.20
2016,08,19,05,47,17.20
2016,08,19,05,48,17.20
2016,08,19,05,49,17.20
2016,08,19,05,50,17.20
2016,08,19,05,51,17.20
2016,08,19,05,52,17.20
2016,08,19,05,53,17.20
2016,08,19,05,54,17.10
2016,08,19,05,55,17.10
2016,08,19,05,56,17.10
2016,08,19,05,57,17.10
2016,08,19,05,58,17.10
2016,08,19,05,59,17.10
2016,08,19,06,00,17.10
2016,08,19,06,01,17.10
2016,08,19,06,02,17.10
2016,08,19,06,03,17.10
2016,08,19,06,04,17.00
2016,08,19,06,05,17.00
2016,08,19,06,06,17.00
2016,08,19,06,07,17.00
2016,08,19,06,08,17.00
2016,08,19,06,09,17.00
2016,08,19,06,10,17.00
2016,08,19,06,11,17.00
2016,08,19,06,12,16.90
2016,08,19,06,13,16.90
2016,08,19,06,14,16.90
2016,08,19,06,15,16.90
2016,08,19,06,16,16.90
2016,08,19,06,17,16.90
2016,08,19,06,18,16.90
2016,08,19,06,19,16.90
2016,08,19,06,20,16.90
2016,08,19,06,21,16.90
2016,08,19,06,22,16.90
2016,08,19,06,23,16.90
2016,08,19,06,24,16.90
2016,08,19,06,25,16.90
2016,08,19,06,26,16.90
2016,08,19,06,27,16.90
2016,08,19,06,28,16.90
2016,08,19,06,29,16.90
2016,08,19,06,30,16.90
2016,08,19,06,31,16.90
2016,08,19,06,32,16.90
2016,08,19,06,33,16.90
2016,08,19,06,34,16.90
2016,08,19,06,35,16.90
2016,08,19,06,36,16.90
2016,08,19,06,37,16.90
2016,08,19,06,38,16.90
2016,08,19,06,39,16.90
2016,08,19,06,40,16.80
2016,08,19,06,41,16.80
2016,08,19,06,42,16.80
2016,08,19,06,43,16.80
2016,08,19,06,44,16.80
2016,08,19,06,45,16.80
2016,08,19,06,46,16.80
2016,08,19,06,47,16.80
2016,08,19,06,48,16.90
2016,08,19,06,49,16.90
2016,08,19,06,50,16.90
2016,08,19,06,51,16.90
2016,08,19,06,52,16.90
2016,08,19,06,53,16.90
2016,08,19,06,54,16.90
2016,08,19,06,55,16.90
2016,08,19,06,56,16.90
2016,08,19,06,57,16.90
2016,08,19,06,58,16.90
2016,08,19,06,59,16.90
2016,08,19,07,00,16.90
2016,08,19,07,01,16.90
2016,08,19,07,02,16.90
2016,08,19,07,03,16.90
2016,08,19,07,04,16.90
2016,08,19,07,05,16.90
2016,08,19,07,06,16.90
2016,08,19,07,07,16.90
2016,08,19,07,08,16.90
2016,08,19,07,09,16.90
2016,08,19,07,10,16.90
2016,08,19,07,11,16.90
2016,08,19,07,12,16.80
2016,08,19,07,13,16.80
2016,08,19,07,14,16.90
2016,08,19,07,15,16.90
2016,08,19,07,16,16.90
2016,08,19,07,17,16.90
2016,08,19,07,18,17.00
2016,08,19,07,19,17.00
2016,08,19,07,20,17.10
2016,08,19,07,21,17.20
2016,08,19,07,22,17.30
2016,08,19,07,23,17.40
2016,08,19,07,24,17.50
2016,08,19,07,25,17.60
2016,08,19,07,26,17.70
2016,08,19,07,27,17.80
2016,08,19,07,28,17.90
2016,08,19,07,29,17.90
2016,08,19,07,30,18.00
2016,08,19,07,31,18.10
2016,08,19,07,32,18.20
2016,08,19,07,33,18.30
2016,08,19,07,34,18.40
2016,08,19,07,35,18.50
2016,08,19,07,36,18.60
2016,08,19,07,37,18.70
2016,08,19,07,38,18.80
2016,08,19,07,39,18.90
2016,08,19,07,40,19.00
2016,08,19,07,41,19.10
2016,08,19,07,42,19.10
2016,08,19,07,43,19.20
2016,08,19,07,44,19.20
2016,08,19,07,45,19.20
2016,08,19,07,46,19.30
2016,08,19,07,47,19.30
2016,08,19,07,48,19.40
2016,08,19,07,49,19.50
2016,08,19,07,50,19.70
2016,08,19,07,51,19.90
2016,08,19,07,52,20.00
2016,08,19,07,53,20.00
2016,08,19,07,54,20.10
2016,08,19,07,55,20.20
2016,08,19,07,56,20.30
2016,08,19,07,57,20.40
2016,08,19,07,58,20.60
2016,08,19,07,59,20.70
2016,08,19,08,00,20.80
2016,08,19,08,01,20.90
2016,08,19,08,02,21.00
2016,08,19,08,03,21.10
2016,08,19,08,04,21.20
2016,08,19,08,05,21.40
2016,08,19,08,06,21.60
2016,08,19,08,07,21.70
2016,08,19,08,08,21.90
2016,08,19,08,09,22.10
2016,08,19,08,10,22.20
2016,08,19,08,11,22.40
2016,08,19,08,12,22.50
2016,08,19,08,13,22.70
2016,08,19,08,14,22.80
2016,08,19,08,15,22.90
2016,08,19,08,16,23.00
2016,08,19,08,17,23.00
2016,08,19,08,18,23.10
2016,08,19,08,19,23.10
2016,08,19,08,20,23.20
2016,08,19,08,21,23.20
2016,08,19,08,22,23.20
2016,08,19,08,23,23.20
2016,08,19,08,24,23.30
2016,08,19,08,25,23.30
2016,08,19,08,26,23.40
2016,08,19,08,27,23.50
2016,08,19,08,28,23.60
2016,08,19,08,29,23.70
2016,08,19,08,30,23.80
2016,08,19,08,31,23.90
2016,08,19,08,32,24.00
2016,08,19,08,33,24.20
2016,08,19,08,34,24.30
2016,08,19,08,35,24.40
2016,08,19,08,36,24.50
2016,08,19,08,37,24.60
2016,08,19,08,38,24.70
2016,08,19,08,39,24.70
2016,08,19,08,40,24.80
2016,08,19,08,41,24.80
2016,08,19,08,42,24.90
2016,08,19,08,43,24.90
2016,08,19,08,44,25.00
2016,08,19,08,45,25.00
2016,08,19,08,46,25.10
2016,08,19,08,47,25.10
2016,08,19,08,48,25.10
2016,08,19,08,49,25.10
2016,08,19,08,50,25.20
2016,08,19,08,51,25.20
2016,08,19,08,52,25.20
2016,08,19,08,53,25.30
2016,08,19,08,54,25.30
2016,08,19,08,55,25.40
2016,08,19,08,56,25.40
2016,08,19,08,57,25.50
2016,08,19,08,58,25.60
2016,08,19,08,59,25.70
2016,08,19,09,00,25.90
2016,08,19,09,01,26.00
2016,08,19,09,02,26.10
2016,08,19,09,03,26.10
2016,08,19,09,04,26.20
2016,08,19,09,05,26.20
2016,08,19,09,06,26.20
2016,08,19,09,07,26.30
2016,08,19,09,08,26.30
2016,08,19,09,09,26.40
2016,08,19,09,10,26.50
2016,08,19,09,11,26.60
2016,08,19,09,12,26.70
2016,08,19,09,13,26.80
2016,08,19,09,14,26.80
2016,08,19,09,15,26.90
2016,08,19,09,16,27.00
2016,08,19,09,17,27.10
2016,08,19,09,18,27.20
2016,08,19,09,19,27.30
2016,08,19,09,20,27.40
2016,08,19,09,21,27.50
2016,08,19,09,22,27.60
2016,08,19,09,23,27.70
2016,08,19,09,24,27.80
2016,08,19,09,25,27.90
2016,08,19,09,26,28.00
2016,08,19,09,27,28.00
2016,08,19,09,28,28.00
2016,08,19,09,29,28.10
2016,08,19,09,30,28.10
2016,08,19,09,31,28.20
2016,08,19,09,32,28.20
2016,08,19,09,33,28.20
2016,08,19,09,34,28.20
2016,08,19,09,35,28.30
2016,08,19,09,36,28.40
2016,08,19,09,37,28.40
2016,08,19,09,38,28.40
2016,08,19,09,39,28.40
2016,08,19,09,40,28.40
2016,08,19,09,41,28.30
2016,08,19,09,42,28.30
2016,08,19,09,43,28.30
2016,08,19,09,44,28.30
2016,08,19,09,45,28.30
2016,08,19,09,46,28.30
2016,08,19,09,47,28.30
2016,08,19,09,48,28.40
2016,08,19,09,49,28.40
2016,08,19,09,50,28.40
2016,08,19,09,51,28.40
2016,08,19,09,52,28.40
2016,08,19,09,53,28.40
2016,08,19,09,54,28.30
2016,08,19,09,55,28.30
2016,08,19,09,56,28.30
2016,08,19,09,57,28.30
2016,08,19,09,58,28.20
2016,08,19,09,59,28.20
2016,08,19,10,00,28.20
2016,08,19,10,01,28.20
2016,08,19,10,02,28.20
2016,08,19,10,03,28.20
2016,08,19,10,04,28.20
2016,08,19,10,05,28.20
2016,08,19,10,06,28.30
2016,08,19,10,07,28.30
2016,08,19,10,08,28.30
2016,08,19,10,09,28.30
2016,08,19,10,10,28.40
2016,08,19,10,11,28.40
2016,08,19,10,12,28.40
2016,08,19,10,13,28.40
2016,08,19,10,14,28.50
2016,08,19,10,15,28.50
2016,08,19,10,16,28.50
2016,08,19,10,17,28.60
2016,08,19,10,18,28.60
2016,08,19,10,19,28.60
2016,08,19,10,20,28.60
2016,08,19,10,21,28.60
2016,08,19,10,22,28.60
2016,08,19,10,23,28.50
2016,08,19,10,24,28.50
2016,08,19,10,25,28.50
2016,08,19,10,26,28.50
2016,08,19,10,27,28.50
2016,08,19,10,28,28.60
2016,08,19,10,29,28.70
2016,08,19,10,30,28.70
2016,08,19,10,31,28.80
2016,08,19,10,32,28.80
2016,08,19,10,33,28.80
2016,08,19,10,34,28.90
2016,08,19,10,35,29.00
2016,08,19,10,36,29.00
2016,08,19,10,37,28.90
2016,08,19,10,38,28.90
2016,08,19,10,39,29.00
2016,08,19,10,40,29.00
2016,08,19,10,41,29.10
2016,08,19,10,42,29.20
2016,08,19,10,43,29.30
2016,08,19,10,44,29.40
2016,08,19,10,45,29.40
2016,08,19,10,46,29.50
2016,08,19,10,47,29.50
2016,08,19,10,48,29.60
2016,08,19,10,49,29.60
2016,08,19,10,50,29.50
2016,08,19,10,51,29.50
2016,08,19,10,52,29.40
2016,08,19,10,53,29.30
2016,08,19,10,54,29.30
2016,08,19,10,55,29.20
2016,08,19,10,56,29.30
2016,08,19,10,57,29.40
2016,08,19,10,58,29.40
2016,08,19,10,59,29.40
2016,08,19,11,00,29.40
2016,08,19,11,01,29.40
2016,08,19,11,02,29.40
2016,08,19,11,03,29.40
2016,08,19,11,04,29.30
2016,08,19,11,05,29.40
2016,08,19,11,06,29.40
2016,08,19,11,07,29.40
2016,08,19,11,08,29.50
2016,08,19,11,09,29.60
2016,08,19,11,10,29.70
2016,08,19,11,11,29.70
2016,08,19,11,12,29.80
2016,08,19,11,13,29.80
2016,08,19,11,14,29.80
2016,08,19,11,15,29.90
2016,08,19,11,16,29.90
2016,08,19,11,17,29.80
2016,08,19,11,18,29.80
2016,08,19,11,19,29.80
2016,08,19,11,20,29.80
2016,08,19,11,21,29.90
2016,08,19,11,22,29.90
2016,08,19,11,23,29.90
2016,08,19,11,24,29.90
2016,08,19,11,25,30.00
2016,08,19,11,26,30.00
2016,08,19,11,27,30.00
2016,08,19,11,28,30.10
2016,08,19,11,29,30.20
2016,08,19,11,30,30.30
2016,08,19,11,31,30.20
2016,08,19,11,32,30.20
2016,08,19,11,33,30.20
2016,08,19,11,34,30.40
2016,08,19,11,35,30.50
2016,08,19,11,36,30.50
2016,08,19,11,37,30.40
2016,08,19,11,38,30.40
2016,08,19,11,39,30.30
2016,08,19,11,40,30.20
2016,08,19,11,41,30.20
2016,08,19,11,42,30.10
2016,08,19,11,43,30.10
2016,08,19,11,44,30.20
2016,08,19,11,45,30.30
2016,08,19,11,46,30.40
2016,08,19,11,47,30.40
2016,08,19,11,48,30.40
2016,08,19,11,49,30.30
2016,08,19,11,50,30.40
2016,08,19,11,51,30.40
2016,08,19,11,52,30.50
2016,08,19,11,53,30.60
2016,08,19,11,54,30.60
2016,08,19,11,55,30.70
2016,08,19,11,56,30.90
2016,08,19,11,57,31.00
2016,08,19,11,58,31.10
2016,08,19,11,59,31.10
2016,08,19,12,00,31.10
2016,08,19,12,01,31.00
2016,08,19,12,02,30.90
2016,08,19,12,03,30.90
2016,08,19,12,04,30.90
2016,08,19,12,05,30.90
2016,08,19,12,06,30.90
2016,08,19,12,07,30.90
2016,08,19,12,08,30.90
2016,08,19,12,09,30.90
2016,08,19,12,10,30.90
2016,08,19,12,11,30.90
2016,08,19,12,12,30.90
2016,08,19,12,13,30.90
2016,08,19,12,14,30.90
2016,08,19,12,15,30.90
2016,08,19,12,16,30.90
2016,08,19,12,17,30.90
2016,08,19,12,18,30.90
2016,08,19,12,19,30.90
2016,08,19,12,20,30.90
2016,08,19,12,21,30.90
2016,08,19,12,22,31.00
2016,08,19,12,23,31.10
2016,08,19,12,24,31.20
2016,08,19,12,25,31.20
2016,08,19,12,26,31.10
2016,08,19,12,27,31.20
2016,08,19,12,28,31.30
2016,08,19,12,29,31.40
2016,08,19,12,30,31.30
2016,08,19,12,31,31.20
2016,08,19,12,32,31.10
2016,08,19,12,33,31.10
2016,08,19,12,34,31.10
2016,08,19,12,35,31.10
2016,08,19,12,36,31.10
2016,08,19,12,37,31.00
2016,08,19,12,38,31.10
2016,08,19,12,39,31.20
2016,08,19,12,40,31.30
2016,08,19,12,41,31.30
2016,08,19,12,42,31.30
2016,08,19,12,43,31.30
2016,08,19,12,44,31.30
2016,08,19,12,45,31.30
2016,08,19,12,46,31.30
2016,08,19,12,47,31.30
2016,08,19,12,48,31.20
2016,08,19,12,49,31.20
2016,08,19,12,50,31.20
2016,08,19,12,51,31.10
2016,08,19,12,52,31.20
2016,08,19,12,53,31.30
2016,08,19,12,54,31.40
2016,08,19,12,55,31.50
2016,08,19,12,56,31.50
2016,08,19,12,57,31.40
2016,08,19,12,58,31.50
2016,08,19,12,59,31.50
2016,08,19,13,00,31.60
2016,08,19,13,01,31.60
2016,08,19,13,02,31.60
2016,08,19,13,03,31.80
2016,08,19,13,04,31.90
2016,08,19,13,05,32.00
2016,08,19,13,06,31.90
2016,08,19,13,07,31.80
2016,08,19,13,08,31.70
2016,08,19,13,09,31.70
2016,08,19,13,10,31.70
2016,08,19,13,11,31.70
2016,08,19,13,12,31.80
2016,08,19,13,13,31.80
2016,08,19,13,14,31.80
2016,08,19,13,15,31.90
2016,08,19,13,16,31.90
2016,08,19,13,17,32.00
2016,08,19,13,18,32.10
2016,08,19,13,19,32.10
2016,08,19,13,20,32.10
2016,08,19,13,21,32.10
2016,08,19,13,22,32.10
2016,08,19,13,23,32.20
2016,08,19,13,24,32.10
2016,08,19,13,25,32.10
2016,08,19,13,26,32.10
2016,08,19,13,27,32.20
2016,08,19,13,28,32.20
2016,08,19,13,29,32.10
2016,08,19,13,30,32.10
2016,08,19,13,31,32.10
2016,08,19,13,32,31.90
2016,08,19,13,33,31.90
2016,08,19,13,34,31.90
2016,08,19,13,35,31.90
2016,08,19,13,36,31.90
2016,08,19,13,37,32.00
2016,08,19,13,38,32.10
2016,08,19,13,39,32.10
2016,08,19,13,40,32.20
2016,08,19,13,41,32.20
2016,08,19,13,42,32.30
2016,08,19,13,43,32.20
2016,08,19,13,44,32.10
2016,08,19,13,45,31.90
2016,08,19,13,46,31.80
2016,08,19,13,47,31.90
2016,08,19,13,48,31.90
2016,08,19,13,49,32.00
2016,08,19,13,50,32.00
2016,08,19,13,51,32.10
2016,08,19,13,52,32.00
2016,08,19,13,53,32.00
2016,08,19,13,54,32.00
2016,08,19,13,55,32.00
2016,08,19,13,56,32.10
2016,08,19,13,57,32.20
2016,08,19,13,58,32.30
2016,08,19,13,59,32.40
2016,08,19,14,00,32.60
2016,08,19,14,01,32.80
2016,08,19,14,02,33.00
2016,08,19,14,03,33.20
2016,08,19,14,04,33.30
2016,08,19,14,05,33.20
2016,08,19,14,06,33.10
2016,08,19,14,07,33.00
2016,08,19,14,08,33.00
2016,08,19,14,09,32.90
2016,08,19,14,10,32.80
2016,08,19,14,11,32.80
2016,08,19,14,12,32.90
2016,08,19,14,13,32.80
2016,08,19,14,14,32.80
2016,08,19,14,15,32.80
2016,08,19,14,16,32.70
2016,08,19,14,17,32.70
2016,08,19,14,18,32.80
2016,08,19,14,19,32.90
2016,08,19,14,20,32.90
2016,08,19,14,21,33.00
2016,08,19,14,22,33.00
2016,08,19,14,23,33.20
2016,08,19,14,24,33.30
2016,08,19,14,25,33.50
2016,08,19,14,26,33.60
2016,08,19,14,27,33.80
2016,08,19,14,28,33.90
2016,08,19,14,29,33.80
2016,08,19,14,30,33.80
2016,08,19,14,31,33.70
2016,08,19,14,32,33.70
2016,08,19,14,33,33.50
2016,08,19,14,34,33.50
2016,08,19,14,35,33.50
2016,08,19,14,36,33.50
2016,08,19,14,37,33.40
2016,08,19,14,38,33.40
2016,08,19,14,39,33.30
2016,08,19,14,40,33.40
2016,08,19,14,41,33.50
2016,08,19,14,42,33.50
2016,08,19,14,43,33.40
2016,08,19,14,44,33.30
2016,08,19,14,45,33.30
2016,08,19,14,46,33.20
2016,08,19,14,47,33.10
2016,08,19,14,48,33.00
2016,08,19,14,49,33.10
2016,08,19,14,50,33.10
2016,08,19,14,51,33.20
2016,08,19,14,52,33.30
2016,08,19,14,53,33.20
2016,08,19,14,54,33.20
2016,08,19,14,55,33.20
2016,08,19,14,56,33.10
2016,08,19,14,57,33.10
2016,08,19,14,58,33.10
2016,08,19,14,59,33.10
2016,08,19,15,00,33.10
2016,08,19,15,01,33.10
2016,08,19,15,02,33.10
2016,08,19,15,03,33.20
2016,08,19,15,04,33.30
2016,08,19,15,05,33.50
2016,08,19,15,06,33.60
2016,08,19,15,07,33.70
2016,08,19,15,08,33.80
2016,08,19,15,09,33.80
2016,08,19,15,10,33.70
2016,08,19,15,11,33.60
2016,08,19,15,12,33.50
2016,08,19,15,13,33.40
2016,08,19,15,14,33.40
2016,08,19,15,15,33.30
2016,08,19,15,16,33.20
2016,08,19,15,17,33.10
2016,08,19,15,18,33.10
2016,08,19,15,19,33.10
2016,08,19,15,20,33.10
2016,08,19,15,21,33.00
2016,08,19,15,22,33.00
2016,08,19,15,23,32.90
2016,08,19,15,24,32.90
2016,08,19,15,25,32.80
2016,08,19,15,26,32.90
2016,08,19,15,27,33.00
2016,08,19,15,28,33.00
2016,08,19,15,29,33.10
2016,08,19,15,30,33.20
2016,08,19,15,31,33.30
2016,08,19,15,32,33.40
2016,08,19,15,33,33.50
2016,08,19,15,34,33.60
2016,08,19,15,35,33.70
2016,08,19,15,36,33.70
2016,08,19,15,37,33.70
2016,08,19,15,38,33.60
2016,08,19,15,39,33.60
2016,08,19,15,40,33.50
2016,08,19,15,41,33.40
2016,08,19,15,42,33.30
2016,08,19,15,43,33.20
2016,08,19,15,44,33.30
2016,08,19,15,45,33.30
2016,08,19,15,46,33.40
2016,08,19,15,47,33.40
2016,08,19,15,48,33.40
2016,08,19,15,49,33.30
2016,08,19,15,50,33.30
2016,08,19,15,51,33.20
2016,08,19,15,52,33.20
2016,08,19,15,53,33.10
2016,08,19,15,54,33.10
2016,08,19,15,55,33.10
2016,08,19,15,56,33.00
2016,08,19,15,57,32.90
2016,08,19,15,58,32.90
2016,08,19,15,59,32.90
2016,08,19,16,00,33.10
2016,08,19,16,01,33.20
2016,08,19,16,02,33.30
2016,08,19,16,03,33.30
2016,08,19,16,04,33.30
2016,08,19,16,05,33.20
2016,08,19,16,06,33.20
2016,08,19,16,07,33.10
2016,08,19,16,08,33.00
2016,08,19,16,09,32.90
2016,08,19,16,10,33.00
2016,08,19,16,11,33.00
2016,08,19,16,12,33.00
2016,08,19,16,13,33.10
2016,08,19,16,14,33.10
2016,08,19,16,15,33.00
2016,08,19,16,16,33.00
2016,08,19,16,17,33.00
2016,08,19,16,18,32.90
2016,08,19,16,19,32.80
2016,08,19,16,20,32.80
2016,08,19,16,21,32.70
2016,08,19,16,22,32.60
2016,08,19,16,23,32.50
2016,08,19,16,24,32.40
2016,08,19,16,25,32.40
2016,08,19,16,26,32.40
2016,08,19,16,27,32.50
2016,08,19,16,28,32.50
2016,08,19,16,29,32.60
2016,08,19,16,30,32.80
2016,08,19,16,31,32.80
2016,08,19,16,32,32.80
2016,08,19,16,33,32.80
2016,08,19,16,34,32.80
2016,08,19,16,35,32.80
2016,08,19,16,36,32.80
2016,08,19,16,37,32.80
2016,08,19,16,38,32.80
2016,08,19,16,39,32.80
2016,08,19,16,40,32.80
2016,08,19,16,41,32.80
2016,08,19,16,42,32.90
2016,08,19,16,43,32.80
2016,08,19,16,44,32.80
2016,08,19,16,45,32.80
2016,08,19,16,46,32.80
2016,08,19,16,47,32.90
2016,08,19,16,48,33.00
2016,08,19,16,49,33.10
2016,08,19,16,50,33.10
2016,08,19,16,51,33.10
2016,08,19,16,52,33.10
2016,08,19,16,53,33.10
2016,08,19,16,54,33.20
2016,08,19,16,55,33.10
2016,08,19,16,56,33.00
2016,08,19,16,57,32.90
2016,08,19,16,58,32.90
2016,08,19,16,59,33.00
2016,08,19,17,00,33.10
2016,08,19,17,01,33.10
2016,08,19,17,02,33.10
2016,08,19,17,03,33.10
2016,08,19,17,04,33.10
2016,08,19,17,05,33.20
2016,08,19,17,06,33.20
2016,08,19,17,07,33.20
2016,08,19,17,08,33.10
2016,08,19,17,09,33.10
2016,08,19,17,10,33.20
2016,08,19,17,11,33.20
2016,08,19,17,12,33.30
2016,08,19,17,13,33.30
2016,08,19,17,14,33.30
2016,08,19,17,15,33.30
2016,08,19,17,16,33.30
2016,08,19,17,17,33.30
2016,08,19,17,18,33.30
2016,08,19,17,19,33.40